Regional Weather Roundup
Issued by NWS

Home | Current Version | Previous Version | Text Only | Print | Product List | Glossary Off
Versions: 1 2 3 4 5 6 7 8 9 10 11 12 13 14 15 16 17 18 19 20 21 22 23 24 25 26 27 28 29 30 31 32 33 34 35 36 37 38 39 40 41 42 43 44 45 46 47 48 49 50

000
ASUS43 KLOT 250003
RWRIL

ILLINOIS REGIONAL WEATHER ROUNDUP
NATIONAL WEATHER SERVICE CHICAGO/ROMEOVILLE IL
600 PM CST FRI FEB 24 2017

NOTE: "FAIR" INDICATES FEW OR NO CLOUDS BELOW 12,000 FEET WITH NO
SIGNIFICANT WEATHER AND/OR OBSTRUCTIONS TO VISIBILITY.

* THESE STATIONS ARE NOT UNDER NWS QUALITY CONTROL. THEY ALSO MAY NOT
  REPORT WEATHER SUCH AS PRECIPITATION OR FOG.

ILZ001-002-007-009-015-016-024-250100-
NORTHWEST ILLINOIS

CITY           SKY/WX    TMP DP  RH WIND       PRES   REMARKS
MOLINE         CLOUDY    38  33  82 NW9       29.61R WCI  31
6HR MIN TEMP:  38; 6HR MAX TEMP:  41; 6HR PCP: TRACE;

STERLING*      MIX PCPN  33  32  96 N13       29.60R FOG     WCI  24
$$

ILZ003-004-008-010-011-017-018-250100-
NORTH CENTRAL ILLINOIS

CITY           SKY/WX    TMP DP  RH WIND       PRES   REMARKS
ROCKFORD       FRZ DRZL  32  30  92 N12       29.59R FOG     WCI  23
6HR MIN TEMP:  32; 6HR MAX TEMP:  39; 6HR PCP:  0.01;

FREEPORT*      CLOUDY    30  29  96 N13       29.62R FOG     WCI  20
ROCHELLE*      CLOUDY    35  35  98 NW6       29.57R FOG     WCI  30
DE KALB*       CLOUDY    36  36  99 NW7       29.56R FOG     WCI  30
PERU*          DRIZZLE   38  37  94 NW8G16    29.58R WCI  32
$$

ILZ005-006-012>014-019>023-250100-
NORTHEAST ILLINOIS

CITY           SKY/WX    TMP DP  RH WIND       PRES   REMARKS
CHICAGO-OHARE  CLOUDY    39  37  92 W9        29.53R FOG     WCI  33
6HR MIN TEMP:  39; 6HR MAX TEMP:  40; 6HR PCP: TRACE;

CHICAGO-MIDWAY CLOUDY    44  39  82 W12G22    29.53R HAZE
6HR MIN TEMP:  39; 6HR MAX TEMP:  44; 6HR PCP: TRACE;

AURORA         CLOUDY    39  37  92 W8        29.55R WCI  33
6HR MIN TEMP:  39; 6HR MAX TEMP:  43;

LANSING*       CLOUDY    44  42  92 W18G29    29.53R
JOLIET*        CLOUDY    44  40  88 W12       29.55S
WAUKEGAN       CLOUDY    35  33  92 NW7       29.52R FOG     WCI  29
6HR MIN TEMP:  35; 6HR MAX TEMP:  37;

DUPAGE AIRPORT CLOUDY    38  35  89 W7        29.53S WCI  33
6HR MIN TEMP:  38; 6HR MAX TEMP:  40; 6HR PCP: TRACE;

KANKAKEE*      CLOUDY    44  39  83 W21G32    29.55S
WHEELING       CLOUDY    37  35  92 NW5       29.55R FOG     WCI  33
6HR MIN TEMP:  37; 6HR MAX TEMP:  38;

MORRIS*        CLOUDY    42  38  86 W15       29.55R
ROMEOVILLE*    CLOUDY    41  41  99 W17G23    29.54S
NORTHERLY ISL    N/A     40  38  93 W6          N/A
$$

LMZ740>746-250100-
SOUTHERN LAKE MICHIGAN

STATION/POSITION SKY/WX   TEMP    WIND        PRES    VSBY  WAVE
                          AIR SEA DIR/SP/G                  HT/PER
                          (F)     (DEG/KT/KT) (MB)    (MI)  (FT/S)
HARRISON CRIB              37     340/ 11/ 12   N/A
BURNHAM HARBOR             40     290/  8/ 10   N/A
CALUMET HARBOR             41     280/  3/  7  999.2R
BURNS HARBOR               36     320/  7/ 11 1000.7R
MICHIGAN CITY              36     250/ 11/ 12   N/A
$$

ILZ025>027-034>036-040-047-049-050-058-095>099-250100-
WEST-CENTRAL ILLINOIS

CITY           SKY/WX    TMP DP  RH WIND       PRES   REMARKS
QUINCY         LGT RAIN  39  37  92 W13       29.67R WCI  31
GALESBURG*     CLOUDY    37  36  96 W12       29.62R WCI  29
MACOMB*        CLOUDY    40  36  87 W16       29.65R
JACKSONVILLE*  MOCLDY    44  34  68 SW15G22   29.65R
PITTSFIELD*    CLOUDY    43  36  76 W15G35    29.68R
$$

ILZ028>032-037-038-041>044-048-051>054-059>061-250100-
CENTRAL ILLINOIS

CITY           SKY/WX    TMP DP  RH WIND       PRES   REMARKS
PONTIAC        CLOUDY    44  38  81 W21G26    29.58S
BLOOMINGTON    CLOUDY    44  36  73 W17G23    29.59S
DECATUR        MOCLDY    48  38  68 W9        29.61R
PEORIA         CLOUDY    44  35  70 W14G24    29.61R
6HR MIN TEMP:  43; 6HR MAX TEMP:  50;

LACON*         DRIZZLE   41  37  84 W12G18    29.60R
LINCOLN*       CLOUDY    47  40  76 W12G18    29.61S
SPRINGFIELD    MOCLDY    46  36  68 SW14      29.63R
6HR MIN TEMP:  46; 6HR MAX TEMP:  54;

TAYLORVILLE    PTCLDY    45  35  69 W16G25    29.64R
6HR MIN TEMP:  45; 6HR MAX TEMP:  55;

$$

ILZ033-039-045-046-055>057-062-063-250100-
EAST-CENTRAL ILLINOIS

CITY           SKY/WX    TMP DP  RH WIND       PRES   REMARKS
CHAMPAIGN      CLOUDY    48  38  68 W21       29.59R
RANTOUL*       MOCLDY    47  40  78 W22       29.58R
MATTOON        CLOUDY    50  41  71 W17G25    29.60R
PARIS*         DRIZZLE   48  46  91 W13       29.60R
$$

ILZ079-100>102-250100-
SOUTHWEST ILLINOIS

CITY           SKY/WX    TMP DP  RH WIND       PRES   REMARKS
ALTON          PTCLDY    48  30  49 W24G30    29.68R
CAHOKIA*       CLEAR     50  32  50 W12       29.69R
SPARTA*        CLEAR     55  36  49 W7        29.68R
$$

ILZ064>066-069>071-074>076-080>082-084>086-088>090-092>094-250100-
SOUTH-CENTRAL ILLINOIS

CITY           SKY/WX    TMP DP  RH WIND       PRES   REMARKS
CARBONDALE     CLOUDY    57  43  59 W8        29.65R
6HR MIN TEMP:  55; 6HR MAX TEMP:  69; 6HR PCP:  0.05;

CAIRO*         MOCLDY    61  53  75 W13       29.67R
EFFINGHAM*     CLOUDY    51  44  75 W12G20    29.64R
MARION         CLOUDY    55  54  94 CALM      29.65R
MT. VERNON     CLOUDY    54  41  61 W7        29.65R
CENTRALIA*     PTCLDY    52  43  72 W8        29.64R
SALEM*         PTCLDY    53  42  66 W7        29.64R
METROPOLIS*    LGT RAIN  62  57  83 SW9       29.66R
$$

ILZ067-068-072-073-078-083-087-091-250100-
SOUTHEAST ILLINOIS

CITY           SKY/WX    TMP DP  RH WIND       PRES   REMARKS
LAWRENCEVILLE  LGT RAIN  55  53  93 W15G22    29.62R
FLORA*         CLOUDY    54  47  76 W9        29.64R
FAIRFIELD*     CLOUDY    53  50  89 W3        29.63S
HARRISBURG*    RAIN      55  53  92 NW8       29.65R
ROBINSON*      LGT RAIN  51  49  93 W13       29.62R
CARMI*         LGT RAIN  55  51  86 W13G21    29.63R
$$

ABBREVIATIONS USED IN REMARKS
   TC - TEMPERATURE IN CELSIUS
  WCI - WIND CHILL INDEX
   HX - HEAT INDEX
  VSB - VISIBILITY
$$




USA.gov is the U.S. government's official web portal to all federal, state and local government web resources and services.